Weather History for Dodge City, KS

Change the Weather History Date:

Thursday, January 31, 2013

  Actual Average Record
Temperature  
Mean Temperature 28 °F -  
Max Temperature 37 °F 46 °F 80 °F (1989)
Min Temperature 18 °F 21 °F -11 °F (1979)
Degree Days  
Heating Degree Days 38    
Moisture  
Dew Point 18 °F    
Average Humidity 71    
Maximum Humidity 88    
Minimum Humidity 45    
Precipitation  
Precipitation 0.00 in - - ()
Sea Level Pressure  
Sea Level Pressure 30.20 in    
Wind  
Wind Speed 10 mph (NNE)    
Max Wind Speed 17 mph    
Max Gust Speed 22 mph    
Visibility 10 miles    
Events      
Averages and records for this station are not official NWS values.
T = Trace of Precipitation, MM = Missing Value Source: NWS Daily Summary

Daily Weather History Graph

Daily Weather History Graph

Search for Another Location

Airport:

Trip Planner

Search our weather history database for the weather conditions in past years. The results will help you decide how hot, cold, wet, or windy it might be!

Date:

Astronomy

Jan. 31, 2013 Rise Set
Actual Time 7:44 AM CST 6:02 PM CST
Civil Twilight 7:16 AM CST 6:30 PM CST
Nautical Twilight 6:45 AM CST 7:01 PM CST
Astronomical Twilight 6:14 AM CST 7:32 PM CST
Moon 11:00 PM CST (1/31) 9:51 AM CST (1/31)
Length of Visible Light 11h 13m
Length of Day
10h 18m
Waning Gibbous, 79% of the Moon is Illuminated
Jan 31
Waning Gibbous
Feb 3
Last Quarter
Feb 10
New
Feb 17
First Quarter
Feb 25
Full

Hourly Weather History & Observations

Time (CST) Temp. Windchill Dew Point Humidity Pressure Visibility Wind Dir Wind Speed Gust Speed Precip Events Conditions
12:52 AM 30.0 °F 20.0 °F 15.1 °F 54% 30.02 in 10.0 mi West 12.7 mph - N/A   Partly Cloudy
1:52 AM 28.9 °F 18.6 °F 16.0 °F 58% 30.01 in 10.0 mi WSW 12.7 mph - N/A   Scattered Clouds
2:52 AM 28.9 °F 20.4 °F 16.0 °F 58% 30.01 in 10.0 mi West 9.2 mph - N/A   Clear
3:52 AM 25.0 °F 19.3 °F 16.0 °F 69% 30.00 in 10.0 mi SSW 4.6 mph - N/A   Scattered Clouds
4:52 AM 24.1 °F 18.2 °F 15.1 °F 69% 29.98 in 10.0 mi SW 4.6 mph - N/A   Clear
5:52 AM 23.0 °F 14.7 °F 15.1 °F 72% 30.00 in 10.0 mi WSW 6.9 mph - N/A   Scattered Clouds
6:52 AM 27.0 °F 18.7 °F 17.1 °F 66% 30.01 in 10.0 mi West 8.1 mph - N/A   Partly Cloudy
7:52 AM 23.0 °F 15.8 °F 17.1 °F 78% 30.06 in 10.0 mi NNW 5.8 mph - N/A   Overcast
8:52 AM 26.1 °F 16.8 °F 19.0 °F 75% 30.10 in 10.0 mi NW 9.2 mph - N/A   Scattered Clouds
9:52 AM 30.9 °F 22.2 °F 21.9 °F 69% 30.15 in 10.0 mi North 10.4 mph - N/A   Partly Cloudy
10:52 AM 35.1 °F 26.9 °F 25.0 °F 67% 30.17 in 10.0 mi NNE 11.5 mph - N/A   Mostly Cloudy
11:52 AM 37.0 °F 28.9 °F 28.0 °F 70% 30.21 in 10.0 mi NNE 12.7 mph 20.7 mph N/A   Partly Cloudy
12:52 PM 35.1 °F 24.8 °F 27.0 °F 72% 30.22 in 10.0 mi NNE 17.3 mph - N/A   Clear
2:52 PM 30.9 °F 19.8 °F 21.9 °F 69% 30.26 in 10.0 mi NE 16.1 mph - N/A   Scattered Clouds
3:28 PM 28.4 °F 16.2 °F 21.2 °F 74% 30.21 in 10.0 mi NE 17.3 mph 21.9 mph N/A   Mostly Cloudy
3:52 PM 30.0 °F 19.5 °F 21.0 °F 69% 30.30 in 10.0 mi NE 13.8 mph - N/A   Mostly Cloudy
4:52 PM 27.0 °F 16.1 °F 19.9 °F 75% 30.31 in 10.0 mi NE 12.7 mph 19.6 mph N/A   Overcast
5:05 PM 26.6 °F 16.2 °F 19.4 °F 74% 30.25 in 10.0 mi NE 11.5 mph - N/A   Overcast
5:52 PM 24.1 °F 13.7 °F 18.0 °F 77% 30.34 in 10.0 mi NE 10.4 mph - N/A   Mostly Cloudy
6:19 PM 21.2 °F 16.4 °F 17.6 °F 86% 30.27 in 10.0 mi ENE 3.5 mph - N/A   Scattered Clouds
6:52 PM 21.0 °F - 16.0 °F 81% 30.39 in 10.0 mi Calm Calm - N/A   Clear
7:52 PM 19.0 °F 10.0 °F 16.0 °F 88% 30.41 in 9.0 mi East 6.9 mph - N/A   Partly Cloudy
8:52 PM 19.0 °F 10.0 °F 15.1 °F 85% 30.39 in 9.0 mi East 6.9 mph - N/A   Clear
9:52 PM 19.0 °F 9.0 °F 15.1 °F 85% 30.40 in 9.0 mi SSE 8.1 mph - N/A   Clear
10:52 PM 18.0 °F 9.8 °F 14.0 °F 84% 30.39 in 9.0 mi SSE 5.8 mph - N/A   Clear
11:52 PM 18.0 °F 8.7 °F 14.0 °F 84% 30.37 in 9.0 mi SSE 6.9 mph - N/A   Clear